{"data":{"norad_id":65321,"intl_designator":"2025-188G","name":"LEAP-1","alt_names":[],"object_type":"PAYLOAD","status":"ACTIVE","operator":null,"country":"IND","launch_date":"2025-08-26","launch_site_code":"AFWTR","launch_vehicle":null,"mission":null,"orbit_class":"UNKNOWN","rcs_meters":null,"size_class":null,"mass_kg":null,"dimensions":null,"purposes":[],"wikipedia_slug":null,"has_3d_model":false,"image_url":null,"decayed_at":null,"tle_current":{"epoch":"2026-05-25T04:17:41.876160Z","epoch_age_seconds":66336,"freshness":"FRESH","line1":"1 65321U 25188G   26145.17895690  .00001858  00000+0  19161-3 0  9996","line2":"2 65321  97.7368 220.0055 0001570 294.3642  65.7413 14.91409112 40424","mean_motion":14.91409112,"eccentricity":0.000157,"inclination_deg":97.7368,"raan_deg":220.0055,"arg_perigee_deg":294.3642,"mean_anomaly_deg":65.7413,"bstar":0.00019161,"rev_number":4042,"period_min":96.552983913913,"perigee_km":592.44633457127,"apogee_km":594.6354414281,"semimajor_km":6971.6778879997,"source":"CELESTRAK","updated_at":"2026-05-25T13:38:05.325519Z"}}}